Regional Weather Roundup
Issued by NWS Northern Indiana

Home | Current Version | Previous Version | Text Only | Print | Product List | Glossary Off
Versions: 1 2 3 4 5 6 7 8 9 10 11 12 13 14 15 16 17 18 19 20 21 22 23 24 25 26 27 28 29 30 31 32 33 34 35 36 37 38 39 40 41 42 43 44 45 46 47 48 49 50

000
ASUS43 KIWX 181700
RWRIWX

KIWX WEATHER ROUNDUP
NATIONAL WEATHER SERVICE NORTHERN INDIANA
1200 PM EST THU DEC 18 2014

NOTE: "FAIR" INDICATES FEW OR NO CLOUDS BELOW 12,000 FEET WITH NO
SIGNIFICANT WEATHER AND/OR OBSTRUCTIONS TO VISIBILITY.

* THESE STATIONS ARE NOT UNDER NWS QUALITY CONTROL. THEY ALSO MAY NOT
  REPORT WEATHER SUCH AS PRECIPITATION OR FOG.

INZ001>027-181800-
NORTHERN INDIANA

CITY           SKY/WX    TMP DP  RH WIND       PRES   REMARKS
GARY*          PTSUNNY   27  16  63 VRB7      30.31F WCI  19
SOUTH BEND     LGT SNOW  28  22  78 SW9       30.28F WCI  19
ELKHART*       CLOUDY    28  21  74 W8        30.27F WCI  20
GOSHEN         CLOUDY    28  22  78 SW10      30.26F WCI  19
ANGOLA*        CLOUDY    28  25  86 W7        30.22F WCI  21
FORT WAYNE     FLURRIES  28  22  78 W8        30.26F WCI  20

$$
INZ028>050-181800-
CENTRAL INDIANA

CITY           SKY/WX    TMP DP  RH WIND       PRES   REMARKS
LAFAYETTE      CLOUDY    26  19  74 NW6       30.30F WCI  19
KOKOMO*        CLOUDY    27  18  69 W6        30.28F WCI  20
MUNCIE*        CLOUDY    26  19  74 W8        30.28S WCI  18
INDIANAPOLIS   CLOUDY    26  20  77 NW3       30.26F

$$
MIZ043>046-050>051-056>058-064>065-071>073-077>080-181800-
SOUTHWEST LOWER MICHIGAN

CITY           SKY/WX    TMP DP  RH WIND       PRES   REMARKS
BATTLE CREEK   CLOUDY    31  24  75 W10       30.21F WCI  22
BENTON HARBOR  CLOUDY    28  23  81 SW8       30.26F WCI  20
COLDWATER*     CLOUDY    29  25  84 W13       30.21F WCI  19
HILLSDALE*     CLOUDY    30  26  85 W8        30.19F WCI  23
HOLLAND        CLOUDY    34  27  75 W14       30.23F WCI  25
GRAND RAPIDS   LGT SNOW  31  28  89 W8        30.21F FOG     WCI  23
KALAMAZOO      CLOUDY    30  24  78 W10       30.23F WCI  21
STURGIS*       CLOUDY    27  25  93 W9        30.23F WCI  17
THREE RIVERS*  CLOUDY    29  25  84 W9        30.24F WCI  21

$$
OHZ001>008-015>018-024>025-181800-
NORTHWEST OHIO

CITY           SKY/WX    TMP DP  RH WIND       PRES   REMARKS
DEFIANCE       CLOUDY    30  24  78 W8        30.25F WCI  22
FINDLAY        CLOUDY    30  23  75 SW12      30.23F WCI  20
TOLEDO EXPRESS CLOUDY    31  24  75 W13       30.22F WCI  21
TOLEDO METCALF CLOUDY    32  23  69 W8        30.23F WCI  25
LIMA           CLOUDY    31  22  69 W7        30.23F WCI  24

$$
AND FOR LAKE MICHIGAN COASTAL AND OPEN LAKE BUOY OBSERVATIONS

STATION/POSITION TEMP    WIND        PRES    VSBY  WAVE
                 AIR SEA DIR/SP/G                  HT/PER
                 (F)     (DEG/KT/KT) (MB)    (MI)  (FT/S)
CALUMET HARBOR    25     230/  4/  8 1024.9F
SAINT JOSEPH      30     210/  8/ 12 1025.4F

$$
&&



USA.gov is the U.S. government's official web portal to all federal, state and local government web resources and services.